Location: Allison's Woods
(35.8809°N, 80.8140°W)
Time: 20:11:53
(UTC-04:00)

Iridium 39 - Visible Passes

Search period start: 25 September 2016 00:00
Search period end: 05 October 2016 00:00
Orbit: 723 x 753 km, 86.4° (Epoch: 25 September)

Date Brightness Start Highest point End Pass type
(mag) Time Alt. Az. Time Alt. Az. Time Alt. Az.
25 Sep 6.9 21:31:44 10° N 21:34:40 36° N 21:34:40 36° N visible
26 Sep 7.0 20:47:06 10° NNE 20:50:00 27° NE 20:50:00 27° NE visible
26 Sep 8.3 22:27:25 10° NNW 22:29:40 19° WNW 22:29:40 19° WNW visible
27 Sep 7.7 20:04:00 10° NE 20:05:24 12° ENE 20:05:24 12° ENE visible
27 Sep 6.9 21:41:29 10° N 21:45:04 43° NW 21:45:04 43° NW visible
28 Sep 6.2 20:56:26 10° N 21:00:31 48° NE 21:00:31 48° NE visible
28 Sep 8.7 22:38:18 10° NW 22:40:11 13° WNW 22:40:11 13° WNW visible
29 Sep 7.1 20:12:16 10° NNE 20:15:58 21° E 20:16:02 21° E visible
29 Sep 7.4 21:51:28 10° NNW 21:55:43 34° W 21:55:43 34° W visible
30 Sep 5.8 21:05:58 10° N 21:10:57 90° ENE 21:11:20 77° S visible
01 Oct 6.5 20:21:18 10° NNE 20:25:47 34° E 20:27:06 29° ESE visible
01 Oct 8.2 22:01:45 10° NW 22:05:24 21° W 22:06:48 19° WSW visible
02 Oct 7.6 19:37:59 10° NE 19:40:23 13° ENE 19:42:45 10° ESE visible
02 Oct 6.5 21:15:45 10° NNW 21:20:35 54° W 21:22:47 30° SSW visible
03 Oct 5.9 20:30:39 10° N 20:35:32 57° E 20:39:09 18° SSE visible
03 Oct 8.8 22:12:46 10° NW 22:14:51 13° W 22:16:56 10° WSW visible
04 Oct 7.0 19:46:25 10° NNE 19:50:15 22° E 19:54:06 10° SE visible
04 Oct 7.5 21:25:45 10° NNW 21:30:09 32° W 21:34:33 10° SSW visible
